{"data":{"norad_id":48373,"epoch":"2026-09-19T02:19:36.582816Z","epoch_age_seconds":125495,"freshness":"FRESH","line1":"1 48373U 21038W   26262.09695119 -.00003008  00000+0 -85241-4 0  9993","line2":"2 48373  53.1614 165.4013 0002349  71.1136 289.0120 15.31676089296896","mean_motion":15.31676089,"eccentricity":0.0002349,"inclination_deg":53.1614,"raan_deg":165.4013,"arg_perigee_deg":71.1136,"mean_anomaly_deg":289.012,"bstar":-8.5241e-5,"rev_number":29689,"period_min":94.014655601247,"perigee_km":469.20245565021,"apogee_km":472.42009154915,"semimajor_km":6848.9482735997,"source":"CELESTRAK","updated_at":"2026-09-20T09:00:38.942421Z"}}